星链-33983 (STARLINK-33983)

导读 | 豆包AI

STARLINK-33983是美国太空探索技术公司(SpaceX)星链(Starlink)项目的低轨通信卫星,于2025年5月13日发射入轨,属于第二代星链星座的组成部分。星链项目旨在搭建全球低轨卫星互联网,为偏远地区、灾害场景等提供高速宽带接入,该卫星依托星间激光链路技术,助力提升星座网络覆盖与通信容量,强化全球宽带互联网服务能力。

Basic Information
目录编号:
63948
目录名称:
STARLINK-33983
国际标识:
2025-098Y
轨道中心:
EARTH
卫星名称:
星链-33983
卫星全名:
星链-33983 (STARLINK-33983)
卫星状态:
在轨 (已飞行305 天)
发射日期:
2025-05-13 UTC
国别 :
美国 (US)
星等 :
--
Orbit Information
数据来源 国际轨道数据 AOE轨道数据
星历时间 2026-03-14T21:35:31+0800
6小时前
查看轨道信息
2026-03-14T08:00:00+0800
20小时前
查看轨道信息
半长轴 6948.958km 6950.211km
偏心率 0.0006418 0.0003112
轨道倾角 69.999° 69.999°
近地点辐角 289.995° 280.251°
升交点赤经 262.126° 263.557°
平近点角 70.052° 264.963°
近地点 566.361km 569.911km
远地点 575.281km 574.237km
周期 96.081分钟 96.107分钟
每日圈数 14.987297 14.983242
Detailed Information
固有亮度:
5
最大亮度:
2.5
卫星平台:
Starlink V1.0
覆盖范围:
全球
运营商:
太空探索技术公司
运营商所在国:
美国
制造商(研发单位):
太空探索技术公司
制造商所在国:
美国
使用方式:
暂无
Satellite Introduction
Starlink 计划是 SpaceX 推出的全球卫星互联网项目,通过发射低轨道卫星,为全球尤其是偏远地区提供高速、低延迟的互联网服务。自 2019 年起,Starlink 已部署数千颗卫星,旨在缩小全球数字鸿沟,推动互联网普及。该项目还为军事、航空等行业提供通信支持,带来广泛经济效益。
2D Orbit Map
3D Orbit Map
Orbit Altitude Analysis Chart
Orbit Inclination Analysis Chart
Orbit Comprehensive Analysis Chart
View Comprehensive Chart